Snowfall_Accumulation
0.0 0.0 0.0 0.0 0.0 0.0 0.0 0.0 0.0 0.0 0.0 0.0 0.0 0.0 0.0 0.0 0.0 0.0 0.0 nan nan nan nan nan nan nan nan nan nan nan nan nan nan nan nan nan nan nan
0.0 0.0 0.0 0.0 0.0 0.0 0.0 0.0 0.0 0.0 0.0 0.0 0.0 0.0 0.0 0.0 0.0 0.0 0.0 nan nan nan nan nan nan nan nan nan nan nan nan nan nan nan nan nan nan nan
0.0 0.0 0.0 0.0 0.0 0.0 0.0 0.0 0.0 0.0 0.0 0.0 0.0 0.0 0.0 0.0 0.0 0.0 0.0 0.0 0.0 nan nan nan nan nan nan nan nan nan nan nan nan nan nan nan nan nan
0.0 0.0 0.0 0.0 0.0 0.0 0.0 0.0 0.0 0.0 0.0 0.0 0.0 0.0 0.0 0.0 0.0 0.0 0.0 0.0 0.0 nan nan nan nan nan nan nan nan nan nan nan nan nan nan nan nan nan
0.0 0.0 0.0 0.0 0.0 0.0 0.0 0.0 0.0 0.0 0.0 0.0 0.0 0.0 0.0 0.0 0.0 0.0 0.0 0.0 0.0 nan nan nan nan nan nan nan nan nan nan nan nan nan nan nan nan nan
0.0 0.0 0.0 0.0 0.0 0.0 0.0 0.0 0.0 0.0 0.0 0.0 0.0 0.0 0.0 0.0 0.0 0.0 0.0 0.0 0.0 0.0 nan nan nan nan nan nan nan nan nan nan nan nan nan nan nan nan
0.0 0.0 0.0 nan nan nan 0.0 0.0 0.0 0.0 0.0 0.0 0.0 0.0 0.0 0.0 0.0 0.0 0.0 0.0 0.0 0.0 0.0 0.0 0.0 0.0 0.0 nan nan nan nan nan nan nan nan nan nan nan
0.0 0.0 0.0 0.0 0.0 nan nan nan nan 0.0 0.0 0.0 0.0 0.0 0.0 0.0 0.0 0.0 0.0 0.0 0.0 0.0 0.0 0.0 0.0 0.0 0.0 0.0 nan nan nan nan nan nan nan nan nan nan
0.0 0.0 0.0 0.0 nan 0.0 nan nan nan nan nan 0.0 0.0 0.0 0.0 0.0 0.0 0.0 0.0 0.0 0.0 0.0 0.0 0.0 0.0 0.0 0.0 0.0 nan nan nan nan nan nan nan nan nan nan
0.0 0.0 0.0 0.0 0.0 0.0 0.0 0.0 0.0 0.0 0.0 0.0 0.0 0.0 0.0 0.0 0.0 0.0 0.0 0.0 0.0 0.0 0.0 0.1 0.0 0.0 0.0 0.0 nan nan nan nan nan nan nan nan nan nan
0.0 0.0 0.0 0.0 nan nan 0.0 0.0 0.0 0.0 nan nan nan nan nan nan nan 0.0 0.2 0.3 0.1 0.0 0.0 0.0 0.0 0.0 0.0 0.0 0.0 nan nan nan nan nan nan nan nan nan
0.0 0.0 nan 0.0 nan nan 0.0 0.0 0.0 0.0 0.0 0.0 0.0 0.0 nan nan nan 0.0 0.2 0.6 0.5 0.5 0.1 0.6 0.3 0.3 0.6 0.1 0.0 0.0 0.0 nan nan nan nan nan nan 0.0
0.0 0.0 0.0 nan nan nan nan 0.0 0.1 0.0 0.0 0.0 0.0 0.0 0.0 0.0 0.0 0.0 0.0 0.3 0.9 0.7 0.1 0.7 1.4 0.6 1.0 0.6 0.2 0.1 0.0 0.0 0.0 0.0 nan nan nan 0.0
0.0 0.1 0.0 nan nan nan nan nan nan nan 0.0 0.1 0.3 0.4 0.5 0.6 0.4 0.3 0.0 0.1 0.2 0.3 0.1 0.0 7.1 2.1 3.4 2.1 1.2 0.4 0.2 0.1 0.1 0.0 0.0 nan nan nan
0.0 0.0 nan nan nan nan nan nan nan 0.3 0.6 1.1 1.0 1.1 1.2 0.9 0.6 1.0 0.3 0.4 1.1 0.2 0.0 0.6 2.1 0.9 1.9 3.6 3.0 0.9 0.9 0.4 0.2 0.3 0.2 0.1 0.1 0.0
nan 0.0 nan 0.0 nan nan 0.0 0.0 0.0 0.1 0.6 0.7 0.8 0.6 0.6 1.4 1.4 1.1 2.7 2.2 3.3 2.1 0.2 0.5 0.6 0.6 3.8 1.3 2.2 2.6 0.9 5.0 0.6 0.4 0.4 0.2 0.1 0.0
nan 0.0 0.0 0.0 0.0 0.0 0.0 0.0 0.0 0.0 0.4 0.4 0.7 0.8 0.9 1.3 1.9 1.7 3.4 4.0 7.3 4.8 4.1 2.8 0.8 0.8 1.3 2.1 9.2 3.2 3.6 3.2 1.0 1.4 1.0 0.6 0.9 0.5
0.2 0.2 0.0 0.1 0.1 0.0 0.0 0.0 0.1 0.3 0.5 0.8 1.1 1.2 2.2 3.0 4.0 4.9 4.8 5.8 8.1 4.8 5.2 3.5 4.2 6.7 4.8 2.9 3.2 5.6 3.2 4.2 3.4 3.1 1.3 2.0 0.6 0.1
0.1 0.2 0.2 0.2 0.2 0.3 0.5 0.6 1.0 0.6 0.3 1.8 1.8 1.9 2.5 3.9 5.2 8.1 7.4 6.9 7.1 5.4 4.6 5.1 9.8 13.5 17.0 11.6 1.5 nan 6.2 2.9 2.3 4.1 1.7 1.9 1.9 0.5
0.3 0.4 0.5 0.4 0.4 0.6 0.8 1.3 1.5 1.5 1.9 2.2 2.5 3.0 4.2 6.5 8.7 8.6 6.1 9.1 6.7 8.0 10.0 8.7 12.0 15.4 21.4 17.3 13.9 3.7 nan 4.0 3.5 4.6 4.0 1.6 1.0 nan
0.3 0.4 0.3 0.5 0.8 1.0 1.2 1.7 1.8 3.4 4.6 5.7 4.0 4.9 5.0 7.1 7.3 5.5 5.4 4.0 nan 11.6 14.9 10.6 7.4 nan 9.2 10.9 17.0 5.9 2.8 nan 1.5 6.6 5.2 6.7 4.9 3.0
0.4 0.7 0.6 0.8 1.1 1.6 2.4 2.9 4.2 4.2 4.7 4.6 5.2 6.0 5.1 5.5 7.7 6.7 6.7 11.3 7.6 9.9 12.8 9.3 7.0 9.7 14.1 15.1 13.2 7.7 5.1 2.1 nan nan nan nan 13.6 19.4
0.7 0.7 1.0 1.2 1.6 2.5 3.3 5.2 6.3 6.5 5.5 6.3 6.5 5.6 5.4 9.6 4.0 5.0 6.9 6.8 8.9 12.9 10.7 12.3 9.3 9.4 11.8 13.8 15.6 11.7 8.3 7.8 3.7 3.9 3.1 nan nan nan
Water_Equivalent
0.00 0.00 0.00 0.00 0.00 0.00 0.00 0.00 0.00 0.00 0.00 0.00 0.00 0.00 0.00 0.00 0.00 0.00 0.00 nan nan nan nan nan nan nan nan nan nan nan nan nan nan nan nan nan nan nan
0.00 0.00 0.00 0.00 0.00 0.00 0.00 0.00 0.00 0.00 0.00 0.00 0.00 0.00 0.00 0.00 0.00 0.00 0.00 nan nan nan nan nan nan nan nan nan nan nan nan nan nan nan nan nan nan nan
0.00 0.00 0.00 0.00 0.00 0.00 0.00 0.00 0.00 0.00 0.00 0.00 0.00 0.00 0.00 0.00 0.00 0.00 0.00 0.00 0.00 nan nan nan nan nan nan nan nan nan nan nan nan nan nan nan nan nan
0.00 0.00 0.00 0.00 0.00 0.00 0.00 0.00 0.00 0.00 0.00 0.00 0.00 0.00 0.00 0.00 0.00 0.00 0.00 0.00 0.00 nan nan nan nan nan nan nan nan nan nan nan nan nan nan nan nan nan
0.00 0.00 0.00 0.00 0.00 0.00 0.00 0.00 0.00 0.00 0.00 0.00 0.00 0.00 0.00 0.00 0.00 0.00 0.00 0.00 0.00 nan nan nan nan nan nan nan nan nan nan nan nan nan nan nan nan nan
0.00 0.00 0.00 0.00 0.00 0.00 0.00 0.00 0.00 0.00 0.00 0.00 0.00 0.00 0.00 0.00 0.00 0.00 0.00 0.00 0.00 0.00 nan nan nan nan nan nan nan nan nan nan nan nan nan nan nan nan
0.00 0.00 0.00 nan nan nan 0.00 0.00 0.00 0.00 0.00 0.00 0.00 0.00 0.00 0.00 0.00 0.00 0.00 0.00 0.00 0.00 0.00 0.00 0.00 0.00 0.00 nan nan nan nan nan nan nan nan nan nan nan
0.00 0.00 0.00 0.00 0.00 nan nan nan nan 0.00 0.00 0.00 0.00 0.00 0.00 0.00 0.00 0.00 0.00 0.00 0.01 0.00 0.00 0.00 0.00 0.00 0.00 0.00 nan nan nan nan nan nan nan nan nan nan
0.00 0.00 0.00 0.00 nan 0.00 nan nan nan nan nan 0.00 0.01 0.00 0.00 0.00 0.00 0.00 0.00 0.00 0.00 0.00 0.00 0.00 0.00 0.00 0.00 0.00 nan nan nan nan nan nan nan nan nan nan
0.00 0.00 0.00 0.00 0.00 0.00 0.00 0.00 0.00 0.00 0.00 0.00 0.00 0.00 0.00 0.00 0.00 0.00 0.00 0.00 0.00 0.00 0.00 0.05 0.00 0.00 0.00 0.00 nan nan nan nan nan nan nan nan nan nan
0.00 0.00 0.00 0.00 nan nan 0.00 0.00 0.00 0.00 nan nan nan nan nan nan nan 0.00 0.06 0.10 0.06 0.01 0.00 0.01 0.00 0.02 0.00 0.00 0.00 nan nan nan nan nan nan nan nan nan
0.00 0.00 nan 0.00 nan nan 0.00 0.00 0.00 0.00 0.00 0.00 0.00 0.00 nan nan nan 0.00 0.07 0.22 0.19 0.19 0.04 0.23 0.11 0.13 0.24 0.04 0.01 0.00 0.00 nan nan nan nan nan nan 0.00
0.00 0.00 0.00 nan nan nan nan 0.00 0.01 0.00 0.00 0.00 0.00 0.00 0.00 0.00 0.00 0.01 0.00 0.12 0.34 0.26 0.05 0.26 0.54 0.23 0.36 0.23 0.08 0.05 0.00 0.00 0.00 0.00 nan nan nan 0.00
0.00 0.03 0.01 nan nan nan nan nan nan nan 0.01 0.04 0.14 0.15 0.19 0.20 0.16 0.12 0.02 0.04 0.08 0.11 0.02 0.01 2.76 0.67 1.05 0.57 0.33 0.14 0.08 0.04 0.05 0.01 0.00 nan nan nan
0.00 0.00 nan nan nan nan nan nan nan 0.11 0.17 0.27 0.26 0.32 0.35 0.31 0.22 0.32 0.10 0.13 0.41 0.07 0.00 0.22 0.83 0.32 0.69 1.02 0.77 0.30 0.32 0.14 0.08 0.12 0.08 0.05 0.02 0.00
nan 0.00 nan 0.00 nan nan 0.00 0.00 0.00 0.02 0.15 0.20 0.22 0.18 0.22 0.47 0.48 0.42 0.88 0.78 1.06 0.66 0.06 0.19 0.23 0.22 1.15 0.42 0.67 0.65 0.26 1.18 0.23 0.17 0.16 0.07 0.02 0.00
nan 0.00 0.00 0.00 0.00 0.00 0.00 0.00 0.00 0.01 0.14 0.14 0.22 0.24 0.28 0.45 0.58 0.61 1.08 1.26 1.68 1.12 0.95 0.76 0.23 0.22 0.41 0.59 1.79 0.76 0.89 0.75 0.29 0.48 0.38 0.21 0.25 0.18
0.03 0.03 0.01 0.02 0.04 0.00 0.01 0.01 0.02 0.12 0.16 0.25 0.34 0.37 0.62 0.86 1.10 1.38 1.44 1.49 1.69 1.09 1.13 0.94 1.08 1.36 1.23 0.80 1.00 1.30 0.75 0.95 0.79 0.72 0.36 0.49 0.22 0.05
0.02 0.07 0.07 0.08 0.09 0.11 0.14 0.20 0.31 0.21 0.08 0.59 0.56 0.63 0.79 1.07 1.41 1.80 1.66 1.51 1.40 1.12 1.06 1.25 2.02 2.34 2.38 1.56 0.44 nan 1.45 0.83 0.69 0.99 0.49 0.49 0.52 0.19
0.09 0.12 0.14 0.13 0.14 0.20 0.24 0.40 0.44 0.45 0.57 0.66 0.74 0.91 1.27 1.74 1.99 1.79 1.30 1.58 1.32 1.48 1.71 1.66 2.16 2.62 3.39 2.72 2.06 0.98 nan 1.10 0.90 1.01 0.91 0.44 0.29 nan
0.11 0.14 0.10 0.16 0.22 0.30 0.37 0.50 0.49 0.93 1.31 1.57 1.14 1.39 1.43 1.86 1.67 1.25 1.14 0.85 nan 1.92 2.09 1.50 1.53 nan 2.52 2.24 2.44 1.03 0.72 nan 0.37 1.50 1.27 1.19 0.88 0.63
0.12 0.20 0.19 0.25 0.33 0.46 0.71 0.85 1.15 1.19 1.33 1.23 1.44 1.68 1.44 1.41 1.65 1.29 1.24 1.90 1.28 1.59 1.93 1.81 1.57 2.08 2.63 2.43 1.86 1.00 0.90 0.52 nan nan nan nan 2.44 3.04
0.20 0.22 0.30 0.38 0.48 0.67 0.92 1.36 1.68 1.70 1.47 1.74 1.74 1.48 1.39 1.87 0.90 1.05 1.30 1.23 1.54 1.98 1.66 1.72 1.55 1.67 1.87 2.19 2.20 1.56 1.05 1.08 0.73 0.78 0.78 nan nan nan
SL_Ratio
nan nan nan nan nan nan nan nan nan nan nan nan nan nan nan nan nan nan nan nan nan nan nan nan nan nan nan nan nan nan nan nan nan nan nan nan nan nan
nan nan nan nan nan nan nan nan nan nan nan nan nan nan nan nan nan nan nan nan nan nan nan nan nan nan nan nan nan nan nan nan nan nan nan nan nan nan
nan nan nan nan nan nan nan nan nan nan nan nan nan nan nan nan nan nan nan nan nan nan nan nan nan nan nan nan nan nan nan nan nan nan nan nan nan nan
nan nan nan nan nan nan nan nan nan nan nan nan nan nan nan nan nan nan nan nan nan nan nan nan nan nan nan nan nan nan nan nan nan nan nan nan nan nan
nan nan nan nan nan nan nan nan nan nan nan nan nan nan nan nan nan nan nan nan nan nan nan nan nan nan nan nan nan nan nan nan nan nan nan nan nan nan
nan nan nan nan nan nan nan nan nan nan nan nan nan nan nan nan nan nan nan nan nan nan nan nan nan nan nan nan nan nan nan nan nan nan nan nan nan nan
nan nan nan nan nan nan nan nan nan nan nan nan nan nan nan nan 10.0 nan nan nan nan nan nan nan nan nan nan nan nan nan nan nan nan nan nan nan nan nan
nan nan nan nan nan nan nan nan nan nan nan nan nan 10.0 nan nan nan nan nan nan 2.4 nan nan nan nan nan nan nan nan nan nan nan nan nan nan nan nan nan
nan nan nan nan nan nan nan nan nan nan nan nan 6.1 5.0 nan nan 6.7 nan nan nan 0.0 nan nan nan nan nan nan nan nan nan nan nan nan nan nan nan nan nan
nan nan nan nan nan nan nan nan nan nan nan nan nan nan nan nan nan nan nan 6.0 nan nan nan 2.6 nan nan nan nan nan nan nan nan nan nan nan nan nan nan
nan nan nan nan nan nan nan 10.0 nan nan nan nan nan nan nan nan nan 0.0 2.5 2.6 2.5 2.5 nan 2.9 2.7 2.4 1.8 nan nan nan nan nan nan nan nan nan nan nan
nan nan nan nan nan nan nan 0.0 6.4 nan nan nan nan nan nan nan nan nan 2.5 2.6 2.6 2.8 2.5 2.6 2.5 2.5 2.6 2.5 2.5 nan nan nan nan nan nan nan nan nan
nan nan nan nan nan nan nan 5.0 6.7 nan 5.7 nan nan nan nan nan nan 2.3 0.0 2.5 2.7 2.6 2.5 2.5 2.5 2.6 2.8 2.5 2.5 2.5 nan nan nan nan nan nan nan nan
nan 2.5 2.6 nan nan nan nan nan nan nan 2.9 2.8 2.6 2.8 2.7 3.0 2.5 2.5 2.7 2.5 2.5 2.5 2.5 2.6 2.6 3.2 3.3 3.6 3.7 2.6 2.5 2.5 2.5 2.7 nan nan nan nan
nan nan nan nan nan nan nan nan nan 3.0 3.5 3.9 3.8 3.5 3.4 2.9 2.9 3.0 2.9 2.9 2.6 2.5 2.5 2.5 2.5 2.7 2.7 3.5 3.9 3.2 2.8 2.6 2.5 2.5 2.5 2.5 2.6 nan
nan nan nan nan nan nan nan nan nan 3.5 3.7 3.6 3.5 3.1 2.9 2.9 3.0 2.7 3.1 2.9 3.1 3.2 2.6 2.5 2.5 2.6 3.3 3.2 3.2 4.0 3.3 4.2 2.6 2.5 2.5 2.5 2.5 nan
nan 6.2 7.1 5.0 10.0 nan nan 10.0 6.7 5.2 3.1 3.2 3.3 3.2 3.1 3.0 3.2 2.8 3.1 3.2 4.3 4.3 4.4 3.7 3.5 3.6 3.2 3.5 5.1 4.2 4.1 4.3 3.4 3.0 2.7 2.9 3.5 2.8
6.8 7.0 7.1 2.6 2.6 6.3 5.0 3.8 3.2 2.9 3.1 3.1 3.3 3.3 3.5 3.5 3.7 3.5 3.3 3.9 4.8 4.4 4.6 3.7 3.9 4.9 3.9 3.6 3.2 4.3 4.2 4.4 4.3 4.4 3.6 4.0 2.9 2.7
6.4 2.7 2.6 2.5 2.6 3.0 3.3 3.2 3.2 2.9 3.2 3.1 3.2 3.1 3.2 3.6 3.7 4.5 4.4 4.5 5.1 4.8 4.4 4.1 4.8 5.8 7.1 7.4 3.5 nan 4.3 3.5 3.3 4.2 3.6 3.8 3.7 2.5
2.7 3.0 3.2 3.2 3.2 3.3 3.2 3.4 3.3 3.3 3.4 3.3 3.4 3.3 3.3 3.8 4.4 4.8 4.7 5.8 5.1 5.4 5.8 5.3 5.5 5.9 6.3 6.4 6.7 3.8 nan 3.6 3.8 4.5 4.4 3.7 3.3 nan
2.6 2.8 2.7 3.1 3.4 3.3 3.4 3.4 3.6 3.6 3.5 3.6 3.6 3.5 3.5 3.8 4.4 4.4 4.8 4.7 nan 6.1 7.1 7.1 4.8 nan 3.6 4.9 7.0 5.7 3.8 nan 4.0 4.4 4.1 5.6 5.6 4.8
3.0 3.7 3.4 3.3 3.5 3.4 3.4 3.5 3.6 3.5 3.5 3.7 3.6 3.6 3.6 3.9 4.7 5.1 5.4 6.0 5.9 6.2 6.7 5.1 4.5 4.7 5.4 6.2 7.1 7.7 5.7 4.1 nan nan nan nan 5.6 6.4
3.2 3.4 3.4 3.3 3.3 3.7 3.6 3.8 3.8 3.8 3.7 3.6 3.7 3.8 3.9 5.2 4.5 4.7 5.3 5.5 5.8 6.5 6.5 7.2 6.0 5.7 6.3 6.3 7.1 7.5 8.0 7.2 5.0 5.0 4.0 nan nan nan